Kuchera_Ratio
0.0 0.0 0.0 0.0 0.0 0.0 0.0 0.0 0.0 0.0 0.0 0.0 0.0 0.0 0.0 0.0 0.0 0.0 0.0 0.0 0.0 5.0 2.8 0.0 0.0 2.1 2.6 2.1 5.4 4.2 3.5 4.8 8.4 12.8 12.9 12.6 12.3 10.2 12.1 11.0 14.8 14.3 15.4 15.7 16.2 18.7 17.4 5.2 5.4 11.4 9.4 5.4 6.4 6.4
0.0 0.0 0.0 0.0 0.0 0.0 0.0 0.0 0.0 0.0 0.0 0.0 0.0 0.0 0.0 0.0 0.0 0.0 0.0 0.0 0.0 0.0 1.8 0.0 0.0 0.0 0.0 0.0 2.1 4.8 4.4 7.6 8.4 12.1 13.6 12.0 12.4 12.0 12.2 14.4 11.6 14.9 12.5 12.8 12.6 11.6 8.6 3.4 7.4 5.2 5.4 7.6 7.0 6.2
0.0 0.0 0.0 0.0 0.0 0.0 0.0 0.0 0.0 0.0 0.0 0.0 0.0 0.0 0.0 0.0 0.0 0.0 0.0 0.0 0.0 0.0 0.0 0.9 1.8 0.0 0.0 0.0 0.0 2.5 5.0 3.0 5.2 3.8 10.6 10.4 12.0 9.2 14.1 12.6 12.2 11.2 4.6 11.6 12.3 9.4 7.2 6.8 4.0 3.8 4.4 5.8 4.2 4.8
0.0 0.0 0.0 0.0 0.0 0.0 0.0 0.0 0.0 0.0 0.0 0.0 0.0 0.0 0.0 0.0 0.0 0.0 0.0 0.0 0.0 0.0 9.4 4.8 0.0 0.0 0.0 0.0 0.0 0.0 0.0 1.9 3.0 2.6 8.6 10.4 11.2 6.0 10.2 8.2 9.0 8.4 5.8 9.4 11.4 8.8 6.4 7.0 4.2 4.4 4.4 5.2 6.0 6.4
0.0 0.0 0.0 0.0 0.0 0.0 0.0 0.0 0.0 0.0 0.0 0.0 0.0 0.0 0.0 0.0 0.0 0.0 0.0 0.0 0.0 0.0 9.5 6.8 0.0 0.0 0.0 0.0 0.0 0.0 0.0 1.5 3.0 6.0 9.6 11.0 7.4 6.8 7.6 7.0 11.8 5.8 8.0 11.8 11.0 8.2 8.0 7.8 6.4 3.4 6.2 8.2 8.6 9.8
0.0 0.0 0.0 0.0 0.0 0.0 0.0 0.0 0.0 0.0 0.0 0.0 0.0 0.0 0.0 0.0 0.0 0.0 0.0 0.0 0.0 0.0 4.1 12.2 3.0 1.4 0.0 0.0 0.0 0.0 0.1 4.0 4.4 5.8 8.8 6.0 4.8 5.4 12.2 12.6 4.6 4.2 3.2 3.6 4.6 3.2 4.4 6.0 6.0 5.0 8.0 9.2 10.0 11.4
0.0 0.0 0.0 0.0 0.0 0.0 0.0 0.0 0.0 0.0 0.0 0.0 0.0 0.0 0.0 0.0 0.0 0.0 2.9 0.0 0.0 0.0 5.4 12.3 9.6 2.4 0.0 0.6 4.0 3.0 3.0 4.8 3.4 8.0 7.8 6.0 5.2 5.0 10.6 12.9 4.4 3.2 2.2 2.6 0.8 3.2 8.2 6.8 9.8 9.0 9.4 10.2 10.2 11.6
0.0 0.0 0.0 0.0 0.0 0.0 0.0 0.0 0.0 0.0 0.0 0.0 0.0 0.0 0.0 0.0 0.0 0.7 0.0 0.0 0.0 0.0 2.1 13.5 12.3 6.2 0.0 6.0 7.4 5.6 5.6 5.2 7.0 7.2 6.8 7.2 6.4 8.2 12.5 5.6 4.8 4.8 4.8 5.6 6.2 5.0 6.8 8.6 9.8 12.0 11.4 11.2 13.0 13.6
0.0 0.0 0.0 0.0 0.0 0.0 0.0 0.0 0.0 0.0 0.0 0.0 0.0 0.0 0.0 0.0 3.1 1.6 0.0 0.0 0.0 0.0 10.8 12.6 13.7 14.4 3.2 6.2 4.6 6.2 7.2 12.1 7.2 10.4 8.6 6.8 10.4 13.1 7.2 5.0 5.8 6.0 4.0 7.8 7.4 7.6 8.2 10.6 12.4 12.8 13.1 13.5 14.4 14.9
0.0 0.0 0.0 0.0 0.0 0.0 0.0 0.0 0.0 0.0 0.0 0.0 0.0 1.1 8.6 4.4 0.0 0.0 0.0 1.2 2.8 6.6 7.7 13.0 8.6 12.8 5.8 7.0 8.8 8.8 8.2 12.1 13.1 9.6 7.6 11.4 10.8 7.2 6.4 3.0 3.4 4.2 5.4 5.6 9.6 12.0 11.6 12.7 12.9 13.8 14.5 14.3 14.7 15.1
0.0 0.0 0.0 0.0 0.0 0.0 0.0 0.0 0.0 0.0 0.0 0.3 7.5 7.2 3.6 0.0 2.3 7.0 9.8 10.3 11.8 12.7 10.4 10.0 8.0 11.0 5.4 11.8 11.4 10.6 11.8 12.1 14.9 12.0 12.5 13.0 12.8 11.0 7.4 7.6 6.6 6.6 7.8 9.4 9.2 10.6 10.6 11.8 13.2 13.8 14.6 14.6 14.9 15.5
0.0 0.0 0.0 0.0 0.0 0.0 0.0 0.0 0.0 0.0 2.2 1.6 1.9 1.6 3.3 8.3 10.6 12.0 14.4 14.2 12.8 13.4 11.6 10.6 9.2 6.8 8.8 5.4 10.8 10.6 13.0 12.6 14.6 9.0 13.3 14.6 12.1 10.8 9.4 10.4 10.2 9.6 10.2 11.8 10.8 12.3 12.5 13.1 13.2 13.8 14.4 15.1 15.9 16.6
0.0 0.0 0.0 0.0 0.0 0.0 0.0 0.0 0.0 0.0 0.0 0.1 4.0 9.1 10.3 13.4 14.6 14.5 15.4 15.6 15.2 12.4 11.8 10.8 12.8 7.9 8.3 8.0 12.9 13.8 14.7 15.1 8.0 13.5 13.2 12.0 10.0 9.6 9.8 11.6 12.2 11.4 12.2 12.7 13.2 12.9 13.2 13.9 14.0 14.4 15.8 16.6 17.8 18.0
0.0 0.0 0.0 0.0 0.0 0.0 0.0 0.0 0.0 0.0 0.0 8.5 11.1 14.7 15.0 15.9 15.5 14.6 13.4 12.8 12.5 11.6 9.4 8.5 12.5 9.8 11.0 12.7 13.3 14.3 14.4 12.5 16.3 17.5 14.3 12.5 9.4 9.4 10.0 11.0 12.2 13.1 13.9 14.6 13.9 14.1 15.2 15.7 17.2 18.3 18.7 19.0 19.2 19.1
0.0 0.0 0.0 0.0 0.0 0.0 0.0 0.0 0.0 0.0 4.9 11.7 12.2 16.9 16.7 14.3 11.8 10.8 8.8 8.8 10.6 9.2 6.8 8.7 11.6 10.2 13.1 13.5 14.1 14.6 15.8 17.4 15.6 15.4 13.1 12.6 9.6 11.4 12.4 12.1 12.7 13.8 15.7 16.0 16.6 17.5 18.2 18.4 18.5 19.0 19.3 19.6 19.6 19.7
0.0 0.0 0.0 0.0 0.0 0.0 0.0 0.0 0.0 1.9 7.8 12.1 13.8 13.7 12.5 12.4 12.1 10.0 10.4 11.6 8.0 7.7 6.1 6.9 12.9 13.3 14.6 14.2 15.4 16.3 16.2 17.2 14.0 13.0 12.0 12.2 12.8 12.7 12.6 12.6 13.3 14.6 15.6 16.7 17.4 18.1 18.5 18.6 18.7 19.0 19.8 19.9 19.8 20.0
0.0 3.4 0.0 0.0 0.0 0.0 0.0 0.0 3.3 10.9 13.0 13.6 13.5 13.3 13.4 11.6 12.6 12.2 10.8 10.0 7.4 7.5 13.1 13.2 13.7 15.4 13.5 15.7 15.9 13.9 15.6 13.1 12.7 12.9 13.5 12.8 13.1 13.4 13.5 14.3 15.6 16.0 16.7 17.1 17.6 18.1 18.4 18.7 19.0 18.5 18.7 19.1 20.0 20.6
1.0 0.0 0.0 0.0 0.0 0.0 2.1 4.5 7.8 11.4 14.7 13.8 14.0 14.3 12.4 12.7 12.5 12.6 10.8 10.6 8.8 7.2 8.0 12.0 12.8 14.5 16.6 16.5 15.9 12.9 12.8 12.9 13.0 13.3 13.8 13.7 13.8 14.6 13.9 14.9 16.0 16.0 16.6 17.2 17.2 18.1 18.6 18.9 17.9 17.7 19.3 19.4 19.3 19.5
0.0 0.0 0.0 0.0 0.0 2.8 6.8 8.7 8.3 14.7 13.9 13.0 13.4 13.7 13.0 12.9 12.2 10.4 10.2 8.8 8.4 9.4 8.8 12.3 13.4 14.4 13.4 13.0 12.5 12.4 12.4 12.6 12.8 13.3 14.1 15.2 14.9 15.0 15.6 15.8 16.4 16.7 17.1 17.8 17.4 16.6 17.1 18.4 17.9 17.8 17.8 17.8 18.1 18.8
0.0 0.0 0.0 0.0 0.0 6.6 12.0 12.0 6.5 12.4 15.0 14.8 14.7 14.8 14.5 14.4 13.9 13.1 13.8 12.4 10.8 11.2 12.9 13.1 12.7 12.4 11.3 9.6 10.1 10.0 10.2 12.2 12.8 13.8 14.8 15.9 16.2 15.9 15.9 15.4 15.5 16.5 16.8 17.3 17.6 18.9 17.4 17.8 18.1 18.2 18.2 18.4 17.8 18.2
3.6 1.4 0.0 1.0 5.2 7.6 11.0 13.0 13.6 13.3 14.0 14.8 15.1 15.1 15.2 14.9 14.6 14.0 13.6 13.1 12.7 13.6 13.1 11.9 10.3 9.7 10.5 10.0 11.0 11.3 12.3 13.0 13.3 13.6 14.0 16.3 17.0 15.4 16.1 16.0 15.8 15.9 16.9 17.2 17.6 19.6 19.8 18.1 18.2 18.6 19.2 19.0 20.1 20.0
6.6 1.2 5.6 4.0 9.1 10.7 12.8 12.3 13.3 13.3 14.1 14.3 14.2 14.6 15.0 14.9 14.7 14.7 13.7 14.7 14.0 11.2 11.3 11.1 10.1 11.4 12.1 12.6 13.1 13.5 14.3 14.9 14.5 14.4 15.1 15.9 16.6 16.5 16.5 16.2 16.4 17.8 17.7 18.3 17.5 18.1 18.2 18.4 18.8 19.5 19.3 19.9 20.4 20.0
2.8 3.6 7.8 8.4 13.3 13.9 15.5 13.2 14.6 14.9 17.1 14.8 15.0 15.5 15.4 15.2 15.5 12.6 14.9 14.6 13.7 12.5 12.2 13.2 13.5 13.5 13.9 14.5 15.3 15.7 15.5 14.9 15.5 15.9 15.9 15.9 15.8 16.0 16.6 17.2 16.6 18.1 18.5 18.9 18.6 18.4 18.3 20.0 20.1 19.9 20.4 20.4 20.4 19.8
3.6 10.6 13.3 14.3 14.6 17.0 15.4 15.6 14.5 15.6 13.8 15.0 16.2 16.3 16.7 16.7 16.0 16.9 16.1 14.2 13.4 12.8 13.5 13.8 14.0 14.6 15.3 15.8 16.3 16.8 16.3 16.2 17.0 17.0 16.3 16.4 17.9 19.0 18.0 18.8 18.7 18.6 17.7 18.0 18.5 19.2 19.8 20.0 20.2 20.3 20.5 20.7 21.2 21.3
12.9 15.1 14.5 17.1 16.4 16.9 16.4 16.8 17.6 17.1 17.8 18.3 17.7 17.2 17.5 17.7 17.9 17.9 16.2 13.9 13.9 14.2 14.3 14.7 15.1 15.8 16.4 17.2 17.9 17.7 17.2 15.7 16.6 18.0 18.6 17.5 18.6 19.6 20.0 19.6 19.6 19.7 19.4 18.6 19.4 20.2 20.4 20.8 20.7 20.7 20.9 21.3 20.5 21.5
16.7 16.4 17.0 16.9 16.9 15.6 17.3 16.5 16.4 17.2 17.5 17.3 17.5 17.4 17.8 17.8 18.5 17.7 15.7 14.7 14.8 15.1 15.1 15.4 16.0 16.5 17.1 17.4 18.1 17.7 17.3 16.6 16.7 18.1 19.0 17.9 17.8 18.2 19.5 20.2 20.1 19.6 19.8 19.5 20.4 20.5 21.0 21.0 21.1 21.3 21.4 22.1 22.2 22.2
17.2 17.6 16.8 14.8 15.9 15.6 15.9 16.5 16.8 16.4 16.1 16.2 16.9 17.7 18.1 19.2 18.6 15.5 15.1 15.0 15.1 15.2 15.6 15.9 17.0 16.4 16.4 17.4 18.0 17.9 17.4 17.6 16.9 17.7 18.1 18.7 18.3 17.6 18.0 19.6 20.3 18.9 20.1 20.1 20.1 20.4 20.8 21.5 21.6 21.7 22.0 22.5 22.8 22.9
16.5 17.2 16.6 16.8 16.3 16.2 16.0 16.3 16.0 15.4 15.4 15.7 16.3 17.8 17.2 15.9 14.8 13.4 12.2 13.5 14.7 15.4 16.1 16.7 17.1 16.3 16.6 17.1 17.8 18.2 18.9 18.7 18.9 19.3 19.9 20.4 20.4 20.2 19.7 19.5 19.6 20.1 20.4 20.3 20.3 20.6 21.0 21.3 21.8 22.2 22.4 22.4 23.3 23.7
17.0 16.9 15.9 17.0 16.7 16.1 15.5 15.1 15.0 15.3 15.3 15.7 16.0 15.6 15.1 14.7 14.1 13.8 14.0 13.9 14.8 15.8 16.3 17.0 17.6 18.0 18.2 18.4 18.5 18.8 18.6 19.0 19.6 21.1 21.2 21.2 21.6 21.9 21.5 20.9 20.9 20.8 20.8 21.1 21.3 21.4 21.4 21.6 21.9 22.2 22.8 23.4 24.0 24.5
16.7 16.6 16.9 16.8 16.3 15.8 15.7 15.6 15.9 15.7 15.6 15.5 15.7 15.7 15.4 14.7 13.9 14.1 14.3 14.7 14.9 15.2 16.5 16.8 17.2 18.1 18.6 19.1 20.0 20.4 19.8 19.6 18.7 18.7 20.0 20.7 20.3 20.9 21.3 21.4 21.5 21.5 21.5 21.5 21.8 22.5 22.9 23.0 23.2 23.6 23.9 24.4 24.9 25.4
16.7 17.1 16.8 16.7 16.8 16.2 15.9 16.2 16.4 16.6 16.7 16.7 16.5 16.2 15.8 16.3 15.5 15.0 15.1 15.6 16.2 16.9 17.4 17.7 18.4 18.7 18.5 19.3 19.5 20.2 21.0 20.5 20.0 19.3 19.0 18.9 19.3 20.4 21.2 21.9 22.1 22.1 22.0 21.9 22.1 22.5 23.3 23.8 24.0 24.3 24.8 25.4 25.8 26.0
17.6 17.3 17.5 17.2 17.1 16.8 16.9 17.4 17.8 18.2 17.5 17.1 16.9 16.9 17.3 17.7 17.7 16.5 16.0 15.8 16.1 16.6 17.3 18.4 18.3 18.4 18.4 18.3 18.3 18.7 18.6 18.7 19.6 19.4 19.3 19.6 20.3 21.3 21.9 22.3 22.5 22.5 22.5 22.5 22.8 23.1 23.8 24.4 24.8 25.3 25.7 25.9 26.1 26.3
20.0 19.8 19.5 19.3 18.9 18.8 18.6 19.1 19.0 19.0 19.0 18.8 18.8 18.8 19.0 19.4 19.1 18.3 17.5 17.1 17.0 17.3 18.7 18.4 18.0 17.9 18.3 18.6 18.7 18.7 18.9 19.2 19.5 19.4 19.8 20.7 21.3 21.9 22.1 22.8 22.9 22.9 22.9 23.2 23.8 24.4 24.5 24.7 25.1 25.6 25.8 26.0 26.2 26.3